CAPE
0 0 0 0 0 0 0 0 3 0 0 0 0 0 0 0 0 0 0 0 0 0 0 0 0 0 0 0 32 102 270 172 72 12 7 11 21 0 0 0 0 0 0 0
0 0 0 0 0 0 0 0 0 0 0 0 0 0 0 0 0 0 0 0 0 0 0 0 0 0 0 0 221 178 222 215 46 37 12 10 13 2 0 1 0 0 0 0
0 0 0 0 0 0 0 1 0 3 1 0 0 0 0 0 0 0 0 0 0 0 0 0 0 0 0 0 189 203 118 42 114 68 44 59 29 13 10 2 2 0 0 0
0 0 0 0 0 0 0 0 0 10 16 0 0 0 0 0 0 0 0 0 0 0 0 0 0 0 0 0 32 193 177 83 89 86 66 40 21 11 4 16 0 0 0 0
0 0 0 0 0 0 0 0 0 7 13 11 0 1 0 0 0 0 0 0 0 0 0 0 0 0 0 0 36 210 46 28 56 82 90 47 50 32 7 11 3 0 0 0
0 0 0 0 0 0 0 0 0 0 4 0 0 0 0 1 7 1 0 0 0 0 0 0 0 0 0 0 165 136 131 35 133 41 7 90 59 14 1 0 0 0 0 0
0 0 0 0 0 0 0 0 0 0 0 0 5 8 1 0 1 6 6 0 0 0 0 0 0 0 0 0 162 160 63 16 51 88 42 29 6 7 0 0 0 2 1 2
0 0 0 0 0 3 0 3 2 0 0 0 0 2 0 0 0 0 0 0 0 0 0 0 0 0 0 0 143 125 5 2 2 0 1 1 1 5 4 3 4 2 4 3
0 0 0 0 0 0 0 2 4 2 0 0 1 0 0 0 0 0 0 0 0 0 0 0 0 0 0 4 15 1 1 1 1 6 1 1 2 3 5 4 4 4 5 3
0 0 0 0 0 0 3 1 0 1 0 0 0 0 0 0 0 0 0 4 0 0 0 1 2 3 3 4 5 4 5 3 3 3 3 4 2 2 3 2 3 4 5 3
0 0 0 0 0 1 0 1 1 0 2 0 0 0 0 0 0 0 0 11 5 5 6 5 4 5 4 10 5 3 4 4 6 4 4 2 2 2 1 0 0 0 0 1
0 0 0 0 0 0 2 1 0 0 0 0 0 0 0 0 0 3 2 10 10 9 7 5 5 4 6 8 7 6 14 4 4 3 3 2 1 1 1 0 0 0 0 0
0 0 0 0 0 0 0 3 0 0 0 0 0 0 0 0 0 1 1 3 7 9 9 9 2 9 9 16 16 7 9 6 4 3 2 1 1 2 2 2 2 2 2 2
0 0 0 0 0 0 0 0 0 0 0 0 0 0 0 0 0 0 0 2 4 6 6 4 3 5 5 4 4 3 4 3 2 2 2 2 2 2 1 1 1 1 0 0
0 0 0 0 0 0 0 0 0 0 0 0 0 0 0 0 0 0 0 3 3 4 4 4 2 1 1 4 3 3 4 3 2 1 1 2 2 1 1 2 2 1 0 0
0 0 0 0 0 0 0 0 0 0 0 0 0 0 0 0 0 0 0 1 0 2 4 3 2 2 1 2 4 2 3 2 1 0 0 0 0 0 1 1 2 1 1 0
0 0 0 0 0 0 0 0 0 0 0 0 0 0 0 0 0 0 0 0 0 0 1 0 0 2 3 3 3 2 1 0 0 0 0 0 0 0 1 1 1 0 0 0
1 0 0 0 0 0 1 0 0 0 0 0 0 0 0 0 0 0 0 0 0 0 0 0 0 0 1 0 0 0 0 0 0 0 0 0 0 0 0 0 0 0 0 0
0 0 0 0 0 0 0 0 0 0 0 0 0 0 0 0 0 0 0 0 0 0 0 0 0 0 0 0 0 0 0 0 0 0 0 0 0 0 0 0 0 0 0 0
0 0 0 0 0 0 0 0 0 0 0 0 0 0 0 0 0 0 0 0 0 0 0 0 0 0 0 0 0 0 0 0 0 0 0 0 0 0 0 0 0 0 0 0
0 0 0 0 0 0 0 0 0 0 0 0 0 0 0 0 0 0 0 0 0 0 0 0 0 0 0 0 0 0 0 0 0 0 0 0 0 0 0 0 0 0 0 0
0 0 0 0 0 0 0 0 0 0 0 0 0 0 0 0 0 0 0 0 0 0 0 0 0 0 0 0 0 0 0 0 0 0 0 0 0 0 0 0 0 0 0 0
0 0 0 0 0 0 0 0 0 0 0 0 0 0 0 0 0 0 0 0 0 0 0 0 0 0 0 0 0 0 0 0 0 0 0 0 0 0 0 0 0 0 0 0
0 0 0 0 0 0 0 0 0 0 0 0 0 0 0 0 0 0 0 0 0 0 0 0 0 0 0 0 0 0 0 0 0 0 0 0 0 0 0 0 0 0 0 0
0 0 0 0 0 0 0 0 0 0 0 0 0 0 0 0 0 0 0 0 0 0 0 0 0 0 0 0 0 0 0 0 0 0 0 0 0 0 0 0 0 0 0 0
0 0 0 0 0 0 0 0 0 0 0 0 0 0 0 0 0 0 0 0 0 0 0 0 0 0 0 0 0 0 0 0 0 0 0 0 0 0 0 0 0 0 0 0
CIN
0 0 0 0 0 0 0 0 0 0 0 -4 0 0 0 0 0 0 0 0 0 0 0 0 0 0 0 0 -77 -25 0 -3 -2 -21 -38 -10 0 -1 0 0 0 0 0 0
0 0 0 0 0 0 0 0 0 0 0 0 0 0 0 0 0 0 0 0 0 0 0 0 0 0 0 0 -20 -20 -4 0 -15 -13 -3 -22 -22 -39 -21 -47 0 0 0 0
0 0 0 0 0 0 0 0 0 0 0 0 0 0 0 0 0 0 0 0 0 0 0 0 0 0 0 0 -20 -27 -42 -43 -2 -19 -15 -3 -7 -11 -37 -24 0 0 0 0
0 0 0 0 0 0 0 0 0 0 0 -1 0 0 0 0 0 0 0 0 0 0 0 0 0 0 0 0 -66 -24 -36 -37 -5 -10 0 0 -19 -22 -2 -98 -9 -1 0 0
0 0 0 0 0 0 0 0 0 0 0 0 0 0 0 0 0 0 0 0 0 0 0 0 0 0 0 0 -56 -14 -107 -22 -3 -3 -2 -2 -3 -2 -51 -98 -127 0 0 0
0 0 0 0 0 0 -2 0 0 0 0 0 0 0 0 0 0 0 0 0 0 0 0 0 0 0 0 0 -37 -35 -49 -68 -2 -69 -14 0 -1 -24 0 -58 0 0 0 0
0 0 0 0 0 0 0 0 0 0 0 0 0 0 0 0 0 0 0 0 0 0 0 0 0 0 0 0 -39 -50 -70 -27 -14 -1 -6 -14 -2 -34 0 0 0 0 0 0
0 0 0 0 -1 -1 0 -1 -1 0 0 0 0 0 0 0 0 0 0 0 0 0 0 0 0 0 0 0 -42 -44 -5 0 0 0 0 0 0 0 0 0 0 0 0 0
0 0 0 0 0 0 0 0 0 0 0 0 0 0 0 0 0 0 0 0 0 0 0 0 0 0 0 -27 -31 0 0 0 0 0 0 0 0 0 0 0 0 0 0 0
0 0 0 0 0 0 -1 0 0 0 0 0 0 0 0 0 0 0 0 0 0 0 0 0 0 0 0 0 0 0 0 0 0 0 0 0 0 0 0 0 0 0 0 0
0 0 0 0 0 0 -1 0 0 0 0 0 0 0 0 0 0 0 0 0 0 0 0 0 0 0 0 0 0 0 0 0 0 0 0 0 0 0 0 0 0 0 0 0
-1 0 0 0 0 0 0 -1 -1 0 0 0 0 0 0 0 0 0 0 0 0 0 0 0 0 0 0 0 0 0 0 0 0 0 0 0 0 0 0 0 0 0 0 0
0 0 0 0 0 0 0 0 0 0 0 0 0 0 0 0 0 0 0 0 0 0 0 0 0 0 0 0 0 0 0 0 0 0 0 0 0 0 0 0 0 0 0 0
0 0 0 0 0 0 0 0 0 0 0 0 -1 0 0 0 0 0 0 0 0 0 0 0 0 0 0 0 0 0 0 0 0 0 0 0 0 0 0 0 0 0 0 0
0 0 0 0 0 0 0 0 0 0 0 0 0 0 0 0 0 0 0 0 0 0 0 0 0 0 0 0 0 0 0 0 0 0 0 0 0 0 0 0 0 0 0 0
0 0 0 0 0 0 0 0 0 0 0 0 0 0 0 0 0 0 0 0 0 0 0 0 0 0 0 0 0 0 0 0 0 0 0 0 0 0 0 0 0 0 -1 0
0 0 0 0 0 0 0 0 0 0 0 0 0 0 0 0 0 0 0 0 0 0 0 0 0 0 0 0 0 0 0 0 0 0 0 0 0 0 0 0 0 0 0 0
0 0 0 0 0 0 0 0 0 0 0 0 0 0 0 0 0 0 0 0 0 0 0 0 0 0 0 0 0 0 0 0 0 0 0 0 0 0 0 0 0 0 0 0
0 0 0 0 0 0 0 0 0 0 0 0 0 0 0 0 0 0 0 0 0 0 0 0 0 0 0 0 0 0 0 0 0 0 0 0 0 0 0 0 0 0 0 0
0 0 0 0 0 0 0 0 0 0 0 0 0 0 0 0 0 0 0 0 0 0 0 0 0 0 0 0 0 0 0 0 0 0 0 0 0 0 0 0 0 0 0 0
0 0 0 0 0 0 0 0 0 0 0 0 0 0 0 0 0 0 0 0 0 0 0 0 0 0 0 0 0 0 0 0 0 0 0 0 0 0 0 0 0 0 0 0
0 0 0 0 0 0 0 0 0 0 0 0 0 0 0 0 0 0 0 0 0 0 0 0 0 0 0 0 0 0 0 0 0 0 0 0 0 0 0 0 0 0 0 0
0 0 0 0 0 0 0 0 0 0 0 0 0 0 0 0 0 0 0 0 0 0 0 0 0 0 0 0 0 0 0 0 0 0 0 0 0 0 0 0 0 0 0 0
0 0 0 0 0 0 0 0 0 0 0 0 0 0 0 0 0 0 0 0 0 0 0 0 0 0 0 0 0 0 0 0 0 0 0 0 0 0 0 0 0 0 0 0
0 0 0 0 0 0 0 0 0 0 0 0 0 0 0 0 0 0 0 0 0 0 0 0 0 0 0 0 0 0 0 0 0 0 0 0 0 0 0 0 0 0 0 0
0 0 0 0 0 0 0 0 0 0 0 0 0 0 0 0 0 0 0 0 0 0 0 0 0 0 0 0 0 0 0 0 0 0 0 0 0 0 0 0 0 0 0 0
Wind_Speed
2 2 5 7 7 13 13 13 19 24 18 14 18 20 23 20 20 22 19 17 14 12 11 11 12 10 10 12 10 8 7 7 9 10 10 10 12 9 7 8 13 14 12 12
2 5 2 5 8 11 14 16 20 17 4 10 13 21 21 18 17 21 17 15 14 9 7 12 10 7 7 10 9 8 9 9 9 9 4 7 9 7 9 9 11 13 13 13
4 5 8 9 11 10 16 12 15 18 17 10 11 12 4 7 6 9 7 9 11 11 11 14 9 7 6 7 7 6 6 10 10 13 10 7 7 6 6 8 8 10 14 14
5 3 10 12 5 8 8 5 13 19 15 3 7 7 4 8 11 15 15 13 12 10 8 13 11 6 7 8 6 3 2 10 5 11 11 10 11 9 8 9 9 10 13 13
6 7 9 4 11 13 12 17 21 19 16 11 3 4 4 8 16 23 21 18 15 14 12 13 9 8 8 6 6 4 7 5 5 8 14 14 12 7 4 7 8 9 9 11
6 6 0 3 12 12 14 11 20 2 4 2 1 7 3 10 17 24 19 20 19 16 14 11 6 5 7 5 4 4 9 5 4 5 4 12 11 6 7 7 7 7 6 6
9 4 5 4 12 8 21 16 6 6 3 2 5 4 7 18 23 20 25 26 21 14 12 9 6 5 4 3 3 5 10 6 6 4 10 10 7 2 7 7 5 5 4 2
5 10 7 6 2 9 13 8 5 5 4 6 10 4 2 26 23 19 27 18 10 8 8 7 4 5 4 5 1 16 15 17 18 18 21 16 21 14 11 13 10 8 9 9
6 7 5 6 3 8 10 12 10 5 5 3 3 8 2 32 35 37 35 15 9 9 10 12 14 14 14 14 12 19 21 17 19 16 17 17 20 21 15 18 14 12 11 11
4 8 3 5 6 4 10 12 5 4 6 5 5 7 10 29 29 35 32 20 19 19 17 16 15 16 16 17 16 22 21 20 18 18 17 16 19 22 16 17 18 19 15 15
3 3 9 5 7 16 14 10 4 3 4 3 5 2 10 18 22 26 25 20 19 17 16 16 16 16 17 18 18 20 21 21 20 19 18 20 21 20 17 18 17 16 16 15
3 2 5 7 5 16 17 12 6 4 7 3 4 2 15 18 21 20 23 21 19 17 17 16 17 17 19 20 18 20 18 22 18 18 20 20 25 19 18 18 17 17 18 17
5 4 6 10 2 3 10 22 16 2 4 12 4 6 16 20 21 24 23 21 18 17 18 17 18 19 19 19 18 19 20 20 17 18 21 22 24 20 20 20 19 19 20 19
3 2 2 2 6 4 17 21 20 11 4 5 5 11 21 23 24 25 25 21 18 17 18 19 19 20 19 17 18 20 20 18 18 21 21 21 22 19 19 19 19 19 19 20
4 2 2 4 3 1 13 15 19 17 10 6 8 8 16 17 18 18 17 19 19 21 22 20 19 18 17 18 19 19 19 18 18 21 22 22 20 19 19 21 20 19 20 19
4 3 3 5 2 2 8 18 15 13 11 5 9 5 14 13 14 20 19 18 19 20 20 20 20 20 18 17 16 18 20 19 18 22 23 19 18 20 21 20 18 18 18 18
7 3 5 6 9 4 9 17 11 7 12 3 7 6 10 12 14 16 16 16 19 20 19 19 18 17 16 16 16 19 18 16 20 21 20 19 18 20 19 16 17 17 17 16
5 3 4 3 8 11 5 4 2 8 14 14 5 8 6 0 5 14 18 17 18 18 19 19 16 16 17 16 18 18 18 18 20 21 19 18 17 17 15 16 16 16 14 15
5 2 4 5 2 2 3 7 5 5 9 11 9 13 9 3 5 15 20 18 16 15 13 12 12 13 15 16 15 17 18 19 20 18 17 15 14 15 15 16 15 14 13 13
2 4 5 4 7 2 5 2 1 1 10 8 11 12 12 12 12 6 17 15 14 13 12 13 13 13 17 15 14 18 19 18 18 16 15 14 14 15 14 14 14 12 12 13
5 5 5 2 3 7 5 6 1 7 4 1 3 4 9 5 2 4 8 10 10 9 11 10 12 15 15 13 14 17 16 16 13 13 13 13 14 15 14 12 11 10 11 11
3 4 2 3 5 4 3 1 7 6 0 5 3 3 3 1 2 2 5 8 9 11 12 13 12 14 13 12 12 16 15 10 11 12 13 13 13 10 9 11 11 11 10 11
2 6 5 6 6 3 2 4 3 5 6 5 5 5 5 4 2 4 6 7 9 10 10 10 10 12 12 12 11 14 10 9 11 13 12 11 11 11 11 11 10 8 9 8
4 3 3 3 4 5 4 2 3 6 6 6 5 7 6 6 5 4 5 6 7 8 8 7 9 12 12 10 11 9 8 7 10 12 11 10 10 10 9 8 7 8 8 8
4 7 6 4 2 2 6 8 10 7 6 8 7 6 8 9 6 5 5 6 6 6 6 6 8 8 8 6 8 7 7 5 11 10 8 7 7 8 7 8 7 6 8 9
8 9 7 8 12 6 7 15 13 13 13 12 10 9 7 7 9 7 6 3 4 5 4 6 7 7 6 7 8 7 7 5 8 10 7 6 6 5 5 5 5 13 14 16
Wind_Direction
349 279 247 270 237 265 278 275 277 279 286 282 269 269 267 261 250 256 259 258 256 242 248 262 266 269 281 275 230 213 213 167 183 172 159 162 182 172 181 185 184 186 182 181
324 254 290 286 296 299 291 280 277 280 248 301 282 273 278 272 255 249 247 255 257 260 248 260 261 271 277 290 229 191 191 172 157 148 175 177 169 164 186 188 189 183 185 185
259 276 312 328 322 332 316 275 275 284 318 252 276 283 282 303 333 300 287 285 263 241 247 260 253 252 287 294 251 205 182 155 177 165 159 177 171 163 179 192 190 193 191 187
275 321 334 327 295 340 298 240 302 293 306 273 62 290 10 13 18 6 345 332 333 312 235 250 266 260 259 264 269 242 134 167 199 165 170 160 185 185 194 194 199 196 194 192
275 326 340 323 327 324 255 300 291 284 273 281 247 227 20 14 347 340 331 320 314 310 304 253 241 250 268 295 267 192 110 88 206 210 208 182 185 190 151 188 203 202 196 192
264 281 186 256 301 304 319 304 308 330 231 213 296 202 63 10 333 323 319 308 302 296 295 295 255 252 269 291 267 199 119 104 138 139 77 195 171 155 155 179 194 195 192 186
329 327 316 308 333 332 348 346 337 1 13 231 343 247 68 354 349 328 314 303 290 280 282 290 246 237 321 298 231 184 100 98 100 89 78 55 35 341 185 170 187 192 182 179
13 332 13 321 3 314 334 346 343 312 326 321 309 353 128 5 330 336 334 297 271 301 300 309 345 34 359 327 122 89 72 59 64 62 65 54 51 36 30 38 64 47 60 55
342 288 306 308 341 22 338 342 303 253 236 248 346 2 236 345 347 347 340 33 59 47 59 64 64 59 52 43 86 82 72 67 64 71 74 70 69 54 44 53 51 54 49 65
282 300 329 341 17 52 341 344 0 348 348 341 66 52 341 343 341 333 340 32 52 61 64 61 54 55 57 58 63 81 79 74 72 71 71 69 69 74 61 57 53 57 52 56
277 136 303 5 14 9 5 12 343 276 305 344 343 49 355 340 338 328 337 22 35 43 49 55 57 59 64 70 66 70 72 74 68 70 72 75 71 67 62 63 57 55 58 52
318 216 291 243 206 53 33 6 339 76 343 349 317 71 10 354 335 341 350 11 29 36 46 53 59 62 62 66 65 71 71 75 71 76 79 73 71 64 63 63 63 62 64 58
336 0 338 348 346 29 16 14 16 107 25 16 23 318 353 353 347 357 359 5 20 36 45 51 56 57 61 63 68 71 71 73 74 75 75 72 74 66 61 61 58 61 62 59
78 0 54 6 303 321 7 19 24 37 58 321 45 323 349 353 356 350 354 1 16 31 42 47 50 53 52 58 64 65 73 69 73 73 69 69 70 67 69 67 63 60 64 65
62 33 24 257 233 331 29 21 24 38 13 46 329 16 355 359 348 347 349 2 18 31 37 40 44 49 48 53 59 62 67 66 66 74 71 65 65 68 65 61 61 59 58 62
8 319 55 298 328 226 38 29 29 39 13 16 343 30 354 2 1 8 359 7 20 29 32 37 40 45 44 52 60 62 63 65 68 69 69 68 65 64 62 60 59 61 60 62
359 340 24 322 340 73 16 17 21 44 38 302 21 315 331 11 13 9 4 10 18 24 28 33 38 44 45 48 56 62 65 65 65 66 66 66 64 63 65 66 63 61 60 57
339 1 38 293 349 38 335 30 122 71 39 26 15 352 327 121 51 29 15 13 17 17 20 26 31 37 43 48 53 62 60 61 63 62 62 62 64 67 67 65 63 60 58 57
190 90 57 85 32 270 2 4 5 14 31 19 -0 2 357 293 189 40 12 12 17 18 21 26 38 45 49 49 54 63 61 60 60 58 58 58 61 66 61 61 58 59 61 60
166 111 109 41 90 78 232 284 326 209 40 17 14 9 2 350 69 341 346 359 10 21 26 27 31 48 51 43 54 64 62 62 61 63 64 61 61 65 64 60 58 55 56 59
353 4 92 43 117 287 249 290 260 71 215 138 73 22 34 48 75 288 332 3 15 20 33 33 45 50 46 46 55 64 63 59 63 68 67 65 65 64 62 67 62 63 62 61
154 114 189 88 69 335 171 297 128 178 353 146 156 156 99 110 37 350 1 18 23 31 31 37 53 50 41 47 65 68 61 55 62 66 63 58 59 60 61 63 57 52 50 51
311 180 190 172 208 244 221 166 212 151 142 192 148 171 147 135 81 64 50 45 43 43 42 40 55 58 39 36 48 65 46 58 67 66 57 54 52 46 49 51 49 48 43 43
251 171 152 70 243 233 202 212 173 179 156 158 144 144 139 132 116 85 68 55 48 43 45 43 62 60 51 34 43 48 53 55 65 64 56 47 47 41 33 48 44 44 42 36
200 145 170 262 286 341 224 210 173 170 152 139 137 145 143 139 136 130 113 98 85 77 54 53 71 74 59 43 44 21 21 47 75 68 61 54 52 43 34 29 34 37 32 40
186 178 173 214 181 163 179 176 163 161 173 165 154 148 155 152 150 136 120 102 103 90 65 73 67 74 49 50 45 24 12 29 86 74 57 47 49 38 44 30 19 34 42 39